• In Netherlands
  • List of Countries
  • For 7 days
  • Water Temperature
  • Satellite Maps
  • Weather Map
  • Weather Widgets
  • user-avatar
    Login

    Hourly Weather Byala

    Today, 19 September, Tuesday

    Time Temperature Precipitation Wind Pressure Humidity
    00:00 +22°C° 0 mm 1 mps 749 mmHg 92%
    01:00 +21°C° 0 mm 2 mps 749 mmHg 92%
    02:00 +20°C° 0 mm 2 mps 749 mmHg 91%
    03:00 +20°C° 0 mm 2 mps 749 mmHg 92%
    04:00 +20°C° 0 mm 3 mps 749 mmHg 93%
    05:00 +20°C° 0 mm 3 mps 748 mmHg 94%
    06:00 +21°C° 0 mm 4 mps 748 mmHg 90%
    07:00 +22°C° 0 mm 4 mps 748 mmHg 86%
    08:00 +23°C° 0 mm 4 mps 748 mmHg 83%
    09:00 +25°C° 0 mm 4 mps 748 mmHg 77%
    10:00 +26°C° 0 mm 4 mps 748 mmHg 71%
    11:00 +27°C° 0 mm 4 mps 748 mmHg 66%
    12:00 +28°C° 0 mm 4 mps 748 mmHg 61%
    13:00 +29°C° 0 mm 4 mps 747 mmHg 56%
    14:00 +30°C° 0 mm 5 mps 747 mmHg 51%
    15:00 +29°C° 0 mm 5 mps 747 mmHg 56%
    16:00 +28°C° 0 mm 5 mps 746 mmHg 62%
    17:00 +27°C° 0 mm 5 mps 746 mmHg 67%
    18:00 +25°C° 0 mm 4 mps 746 mmHg 76%
    19:00 +23°C° 0 mm 4 mps 746 mmHg 86%
    20:00 +21°C° 0 mm 4 mps 746 mmHg 95%
    21:00 +21°C° 0 mm 4 mps 746 mmHg 95%
    22:00 +21°C° 0 mm 3 mps 746 mmHg 96%
    23:00 +21°C° 0 mm 3 mps 746 mmHg 96%

    Tomorrow, 20 September, Wednesday

    Time Temperature Precipitation Wind Pressure Humidity
    00:00 +21°C° 0 mm 3 mps 746 mmHg 96%
    01:00 +21°C° 0 mm 3 mps 746 mmHg 96%
    02:00 +21°C° 0 mm 3 mps 746 mmHg 95%
    03:00 +21°C° 0 mm 3 mps 746 mmHg 95%
    04:00 +21°C° 0 mm 3 mps 746 mmHg 95%
    05:00 +21°C° 0 mm 3 mps 746 mmHg 96%
    06:00 +21°C° 0 mm 2 mps 746 mmHg 89%
    07:00 +23°C° 0 mm 2 mps 746 mmHg 83%
    08:00 +24°C° 0 mm 2 mps 746 mmHg 76%
    09:00 +27°C° 0 mm 2 mps 746 mmHg 64%
    10:00 +29°C° 0 mm 2 mps 746 mmHg 52%
    11:00 +32°C° 0 mm 2 mps 746 mmHg 40%
    12:00 +34°C° 0 mm 3 mps 746 mmHg 36%
    13:00 +35°C° 0 mm 4 mps 745 mmHg 32%
    14:00 +36°C° 0 mm 5 mps 745 mmHg 27%
    15:00 +35°C° 0 mm 5 mps 744 mmHg 30%
    16:00 +33°C° 0 mm 5 mps 744 mmHg 33%
    17:00 +32°C° 0 mm 5 mps 744 mmHg 36%
    18:00 +29°C° 0 mm 5 mps 744 mmHg 45%
    19:00 +27°C° 0 mm 5 mps 744 mmHg 53%
    20:00 +25°C° 0 mm 5 mps 744 mmHg 62%
    21:00 +25°C° 0 mm 5 mps 744 mmHg 62%
    22:00 +23°C° 0 mm 5 mps 744 mmHg 62%
    23:00 +23°C° 0 mm 4 mps 744 mmHg 62%

    Day after tomorrow, 21 September, Thursday

    Time Temperature Precipitation Wind Pressure Humidity
    00:00 +22°C° 0 mm 5 mps 744 mmHg 65%
    01:00 +22°C° 0 mm 5 mps 744 mmHg 67%
    02:00 +21°C° 0 mm 5 mps 744 mmHg 70%
    03:00 +20°C° 0 mm 5 mps 744 mmHg 72%
    04:00 +19°C° 0 mm 5 mps 745 mmHg 75%
    05:00 +17°C° 0 mm 6 mps 745 mmHg 77%
    06:00 +19°C° 0 mm 6 mps 745 mmHg 73%
    07:00 +18°C° 0 mm 7 mps 746 mmHg 68%
    08:00 +18°C° 0 mm 7 mps 746 mmHg 64%
    09:00 +21°C° 0 mm 6 mps 746 mmHg 58%
    10:00 +22°C° 0 mm 6 mps 746 mmHg 51%
    11:00 +25°C° 0 mm 5 mps 747 mmHg 45%
    12:00 +25°C° 0 mm 4 mps 747 mmHg 42%
    13:00 +26°C° 0 mm 4 mps 746 mmHg 40%
    14:00 +27°C° 0 mm 3 mps 746 mmHg 38%
    15:00 +26°C° 0 mm 3 mps 746 mmHg 37%
    16:00 +26°C° 0 mm 3 mps 746 mmHg 37%
    17:00 +25°C° 0 mm 4 mps 746 mmHg 37%
    18:00 +22°C° 0 mm 4 mps 747 mmHg 40%
    19:00 +21°C° 0 mm 5 mps 747 mmHg 44%
    20:00 +19°C° 0 mm 5 mps 748 mmHg 47%
    21:00 +17°C° 0.6 mm 6 mps 748 mmHg 52%
    22:00 +16°C° 0.6 mm 6 mps 748 mmHg 56%
    23:00 +16°C° 0.6 mm 7 mps 748 mmHg 61%

    22 September, Friday

    Time Temperature Precipitation Wind Pressure Humidity
    00:00 +15°C° 0.3 mm 7 mps 749 mmHg 64%
    01:00 +14°C° 0.3 mm 7 mps 749 mmHg 66%
    02:00 +14°C° 0.3 mm 7 mps 749 mmHg 69%
    03:00 +14°C° 0.2 mm 7 mps 749 mmHg 70%
    04:00 +13°C° 0.2 mm 6 mps 749 mmHg 71%
    05:00 +13°C° 0.2 mm 6 mps 749 mmHg 73%
    06:00 +14°C° 0.1 mm 6 mps 749 mmHg 69%
    07:00 +14°C° 0.1 mm 5 mps 749 mmHg 65%
    08:00 +15°C° 0.1 mm 5 mps 750 mmHg 61%
    09:00 +18°C° 0 mm 4 mps 750 mmHg 54%
    10:00 +20°C° 0 mm 4 mps 750 mmHg 47%
    11:00 +22°C° 0 mm 3 mps 750 mmHg 39%
    12:00 +22°C° 0 mm 3 mps 750 mmHg 37%
    13:00 +24°C° 0 mm 3 mps 750 mmHg 35%
    14:00 +25°C° 0 mm 3 mps 750 mmHg 33%
    15:00 +23°C° 0.1 mm 4 mps 750 mmHg 35%
    16:00 +22°C° 0.1 mm 4 mps 750 mmHg 37%
    17:00 +22°C° 0.1 mm 4 mps 750 mmHg 40%
    18:00 +20°C° 0.3 mm 4 mps 751 mmHg 43%
    19:00 +19°C° 0.3 mm 4 mps 751 mmHg 47%
    20:00 +18°C° 0.3 mm 3 mps 751 mmHg 50%
    21:00 +17°C° 0 mm 4 mps 752 mmHg 55%
    22:00 +15°C° 0 mm 5 mps 752 mmHg 59%
    23:00 +14°C° 0 mm 6 mps 752 mmHg 63%

    23 September, Saturday

    Time Temperature Precipitation Wind Pressure Humidity
    00:00 +14°C° 0 mm 6 mps 752 mmHg 65%
    01:00 +13°C° 0 mm 5 mps 752 mmHg 67%
    02:00 +13°C° 0 mm 5 mps 753 mmHg 70%
    03:00 +12°C° 0 mm 5 mps 753 mmHg 71%
    04:00 +12°C° 0 mm 5 mps 753 mmHg 72%
    05:00 +12°C° 0 mm 4 mps 753 mmHg 73%
    06:00 +13°C° 0 mm 4 mps 753 mmHg 68%
    07:00 +14°C° 0 mm 4 mps 753 mmHg 62%
    08:00 +17°C° 0 mm 4 mps 754 mmHg 57%
    09:00 +19°C° 0 mm 4 mps 754 mmHg 51%
    10:00 +20°C° 0 mm 3 mps 754 mmHg 44%
    11:00 +22°C° 0 mm 3 mps 754 mmHg 38%
    12:00 +24°C° 0 mm 3 mps 754 mmHg 36%
    13:00 +25°C° 0 mm 3 mps 754 mmHg 33%
    14:00 +26°C° 0 mm 3 mps 753 mmHg 31%
    15:00 +25°C° 0 mm 3 mps 753 mmHg 33%
    16:00 +24°C° 0 mm 3 mps 753 mmHg 36%
    17:00 +23°C° 0 mm 4 mps 754 mmHg 39%
    18:00 +21°C° 0 mm 3 mps 754 mmHg 46%
    19:00 +20°C° 0 mm 3 mps 754 mmHg 54%
    20:00 +18°C° 0 mm 3 mps 754 mmHg 62%
    21:00 +18°C° 0.1 mm 2 mps 754 mmHg 65%
    22:00 +17°C° 0.1 mm 2 mps 754 mmHg 68%
    23:00 +18°C° 0.1 mm 1 mps 754 mmHg 70%

    24 September, Sunday

    Time Temperature Precipitation Wind Pressure Humidity
    00:00 +16°C° 0 mm 1 mps 754 mmHg 72%
    01:00 +16°C° 0 mm 1 mps 754 mmHg 74%
    02:00 +15°C° 0 mm 1 mps 754 mmHg 76%
    03:00 +15°C° 0 mm 1 mps 754 mmHg 78%
    04:00 +15°C° 0 mm 1 mps 755 mmHg 80%
    05:00 +15°C° 0 mm 1 mps 755 mmHg 82%
    06:00 +16°C° 0 mm 1 mps 755 mmHg 76%
    07:00 +19°C° 0 mm 1 mps 755 mmHg 71%
    08:00 +19°C° 0 mm 2 mps 755 mmHg 66%
    09:00 +21°C° 0 mm 2 mps 755 mmHg 58%
    10:00 +24°C° 0 mm 2 mps 755 mmHg 51%
    11:00 +26°C° 0 mm 3 mps 755 mmHg 43%
    12:00 +26°C° 0 mm 3 mps 755 mmHg 41%
    13:00 +27°C° 0 mm 4 mps 755 mmHg 40%
    14:00 +27°C° 0 mm 4 mps 755 mmHg 38%
    15:00 +26°C° 0 mm 4 mps 755 mmHg 42%
    16:00 +25°C° 0 mm 4 mps 755 mmHg 46%
    17:00 +23°C° 0 mm 4 mps 755 mmHg 50%
    18:00 +22°C° 0 mm 4 mps 755 mmHg 58%
    19:00 +20°C° 0 mm 4 mps 755 mmHg 66%
    20:00 +18°C° 0 mm 4 mps 755 mmHg 74%
    21:00 +18°C° 0 mm 3 mps 755 mmHg 77%
    22:00 +17°C° 0 mm 3 mps 755 mmHg 79%
    23:00 +17°C° 0 mm 2 mps 755 mmHg 81%
    Show more